Tracking 18980 objects as of 23-Feb-2018
HD Live streaming from Space Station
objects crossing your sky now

NOAA 16 DEB

Track NOAA 16 DEB now!
10-day predictions


NORAD ID: 42395
Int'l Code: 2000-055SP
Perigee: 817.1 km
Apogee: 862.9 km
Inclination: 98.9 °
Period: 101.6 minutes
Semi major axis: 7211 km
RCS: Unknown
Launch date: September 21, 2000
Source: United States (US)
Launch site: AIR FORCE WESTERN TEST RANGE (AFWTR)

Note: This is SATELLITE DEBRIS
aabbcc
Your satellite tracking list
Your tracking list is empty




NASA's NSSDC Master Catalog

Two Line Element Set (TLE):
1 42395U 00055SP  18052.45739159 +.00001144 +00000-0 +58022-3 0  9992
2 42395 098.9233 136.9425 0031751 238.5191 121.2879 14.17771103102459
Source of the keplerian elements: AFSPC